Hourly Data Report for October 27, 2014

All times are specified in Local Standard Time (LST). Add 1 hour to adjust for Daylight Saving Time where and when it is observed.

BATHURST A
NEW BRUNSWICK

47°37'47.000" N
65°44'20.000" W
58.80 m
8100505
71574
ZBF

Download Data

Hourly Data (October 2014)
Hourly Data Report for October 27, 2014
Temp Definition
°C
Dew Point Temp Definition
°C
Rel Hum Definition
%
Wind Dir Definition
10's deg

Wind Spd Definition
km/h
Visibility Definition
km
Stn Press Definition
kPa
Hmdx Definition


Wind Chill Definition


Weather Definition


TIME
00:00 Legend Double Dagger 5.5 5.1 97 31 7 9.7 98.87     Rain,Fog
01:00 Legend Double Dagger 5.4 4.8 96 31 9 24.1 98.84     Rain
02:00 Legend Double Dagger 5.5 4.6 94 30 10 24.1 98.82     Rain
03:00 Legend Double Dagger 5.2 4.0 92 30 9 24.1 98.80     Rain
04:00 Legend Double Dagger 4.5 3.0 90 29 16 24.1 98.79     LegendNANA
05:00 Legend Double Dagger 4.2 2.4 88 30 14 24.1 98.83     Cloudy
06:00 Legend Double Dagger 4.2 2.1 86 30 20 24.1 98.84     LegendNANA
07:00 Legend Double Dagger 4.1 1.8 85 30 18 24.1 98.89     LegendNANA
08:00 Legend Double Dagger 4.2 1.7 84 30 18 24.1 99.01     Mostly Cloudy
09:00 Legend Double Dagger 4.6 1.6 81 30 17 24.1 99.07     LegendNANA
10:00 Legend Double Dagger 5.7 2.2 78 31 14 24.1 99.10     LegendNANA
11:00 Legend Double Dagger 6.1 2.0 75 32 18 24.1 99.14     Cloudy
12:00 Legend Double Dagger 6.7 2.4 74 30 20 24.1 99.14     LegendNANA
13:00 Legend Double Dagger 7.9 2.6 69 29 24 24.1 99.15     LegendNANA
14:00 Legend Double Dagger 8.6 3.1 68 30 22 24.1 99.19     Mostly Cloudy
15:00 Legend Double Dagger 7.6 2.7 71 30 28 24.1 99.28     LegendNANA
16:00 Legend Double Dagger 7.4 2.1 69 31 26 24.1 99.40     LegendNANA
17:00 Legend Double Dagger 6.4 2.5 76 31 22 24.1 99.50     Mostly Cloudy
18:00 Legend Double Dagger 6.1 2.7 79 29 17 24.1 99.64     LegendNANA
19:00 Legend Double Dagger 5.8 3.0 82 29 20 24.1 99.73     LegendNANA
20:00 Legend Double Dagger 5.6 3.1 84 32 21 24.1 99.81     Rain Showers
21:00 Legend Double Dagger 5.1 3.0 86 31 12 24.1 99.88     LegendNANA
22:00 Legend Double Dagger 5.4 2.2 80 30 14 24.1 99.97     LegendNANA
23:00 Legend Double Dagger 5.2 1.7 78 30 16 24.1 100.11     Mostly Cloudy

Notes on Data Quality.

Legend

  • E = Estimated
  • M = Missing
  • NA = Not Available
  • ‡ = Partner data that is not subject to review by the National Climate Archives
Date modified: